| time (UTC) | temp F | wind direction | speed MPH | gust MPH | rain 1hr in | rain 24hr in | rain mn in | humidity % | barometer mb |
| 20260508012808 | 46 | 120 | 3.0 | 5.0 | 0.00 | 0.06 | 0.02 | 71 | 1012.5 |
| 20260508012308 | 46 | 147 | 3.0 | 5.0 | 0.00 | 0.06 | 0.02 | 73 | 1012.4 |
| 20260508012243 | 46 | 122 | 3.0 | 4.0 | 0.00 | 0.06 | 0.02 | 74 | 1012.3 |
| 20260508011308 | 46 | 125 | 3.0 | 4.0 | 0.00 | 0.06 | 0.02 | 75 | 1012.2 |
| 20260508010808 | 46 | 107 | 3.0 | 5.0 | 0.00 | 0.06 | 0.02 | 75 | 1012.1 |
| 20260508010308 | 46 | 108 | 3.0 | 5.0 | 0.00 | 0.06 | 0.02 | 75 | 1012.1 |
| 20260508010255 | 46 | 122 | 3.0 | 4.0 | 0.00 | 0.06 | 0.02 | 75 | 1012.0 |
| 20260508005308 | 46 | 105 | 3.0 | 4.0 | 0.00 | 0.06 | 0.02 | 79 | 1011.9 |
| 20260508004809 | 46 | 114 | 3.0 | 4.0 | 0.00 | 0.06 | 0.02 | 83 | 1011.9 |
| 20260508004308 | 46 | 136 | 3.0 | 4.0 | 0.00 | 0.06 | 0.02 | 85 | 1011.9 |
| 20260508003809 | 46 | 140 | 3.0 | 4.0 | 0.00 | 0.06 | 0.02 | 87 | 1012.0 |
| 20260508003308 | 47 | 122 | 3.0 | 4.0 | 0.00 | 0.06 | 0.02 | 86 | 1011.9 |
| 20260508003017 | 47 | 96 | 3.0 | 4.0 | 0.00 | 0.06 | 0.02 | 86 | 1012.0 |
| 20260508002254 | 47 | 102 | 3.0 | 4.0 | 0.00 | 0.06 | 0.02 | 85 | 1011.9 |
| 20260508001754 | 47 | 109 | 3.0 | 4.0 | 0.00 | 0.06 | 0.02 | 85 | 1011.9 |
| 20260508001254 | 47 | 109 | 2.0 | 4.0 | 0.00 | 0.06 | 0.02 | 87 | 1011.7 |
| 20260508000754 | 47 | 163 | 3.0 | 4.0 | 0.00 | 0.06 | 0.02 | 88 | 1011.6 |
| 20260508000253 | 48 | 111 | 3.0 | 5.0 | 0.00 | 0.06 | 0.02 | 89 | 1011.5 |
| 20260507235754 | 48 | 113 | 3.0 | 5.0 | 0.00 | 0.06 | 0.02 | 91 | 1011.4 |
| 20260507235254 | 48 | 113 | 3.0 | 5.0 | 0.00 | 0.06 | 0.02 | 91 | 1011.4 |
| 20260507234754 | 48 | 107 | 3.0 | 5.0 | 0.00 | 0.06 | 0.02 | 91 | 1011.3 |
| 20260507234254 | 48 | 110 | 3.0 | 5.0 | 0.00 | 0.06 | 0.02 | 91 | 1011.2 |
| 20260507234239 | 49 | 104 | 3.0 | 5.0 | 0.00 | 0.06 | 0.02 | 91 | 1011.2 |
| 20260507233253 | 49 | 128 | 3.0 | 5.0 | 0.00 | 0.06 | 0.02 | 91 | 1011.2 |
| 20260507233015 | 49 | 160 | 4.0 | 5.0 | 0.00 | 0.06 | 0.02 | 92 | 1011.2 |
| 20260507232255 | 49 | 105 | 4.0 | 4.0 | 0.00 | 0.06 | 0.02 | 91 | 1011.1 |
| 20260507231754 | 49 | 128 | 4.0 | 4.0 | 0.00 | 0.06 | 0.02 | 92 | 1011.0 |
| 20260507231239 | 49 | 125 | 4.0 | 5.0 | 0.00 | 0.06 | 0.02 | 93 | 1011.0 |
| 20260507230739 | 48 | 102 | 4.0 | 5.0 | 0.00 | 0.06 | 0.02 | 95 | 1011.2 |
| 20260507230223 | 48 | 115 | 4.0 | 5.0 | 0.00 | 0.06 | 0.02 | 96 | 1011.2 |
| 20260507225724 | 47 | 122 | 3.0 | 5.0 | 0.00 | 0.06 | 0.02 | 97 | 1011.2 |
| 20260507225224 | 47 | 110 | 4.0 | 5.0 | 0.00 | 0.06 | 0.02 | 98 | 1011.0 |
| 20260507224946 | 47 | 103 | 3.0 | 4.0 | 0.00 | 0.06 | 0.02 | 98 | 1011.0 |
| 20260507224224 | 47 | 124 | 3.0 | 4.0 | 0.00 | 0.06 | 0.02 | 99 | 1011.0 |
| 20260507223724 | 47 | 93 | 3.0 | 4.0 | 0.00 | 0.06 | 0.02 | 99 | 1010.8 |
| 20260507223224 | 47 | 178 | 3.0 | 4.0 | 0.00 | 0.06 | 0.02 | 99 | 1010.8 |
| 20260507222818 | 46 | 94 | 3.0 | 4.0 | 0.00 | 0.06 | 0.02 | 99 | 1010.7 |
| 20260507221724 | 46 | 22 | 3.0 | 4.0 | 0.00 | 0.06 | 0.02 | 99 | 1010.7 |
| 20260507221224 | 46 | 119 | 3.0 | 4.0 | 0.00 | 0.06 | 0.02 | 98 | 1010.7 |
| 20260507220724 | 47 | 120 | 3.0 | 4.0 | 0.00 | 0.06 | 0.02 | 99 | 1010.6 |
| 20260507220706 | 47 | 107 | 3.0 | 4.0 | 0.00 | 0.06 | 0.02 | 99 | 1010.5 |
| 20260507215723 | 47 | 99 | 3.0 | 4.0 | 0.00 | 0.06 | 0.02 | 99 | 1010.5 |
| 20260507215223 | 46 | 106 | 3.0 | 4.0 | 0.00 | 0.06 | 0.02 | 99 | 1010.5 |
| 20260507214933 | 46 | 108 | 3.0 | 4.0 | 0.00 | 0.06 | 0.02 | 99 | 1010.5 |
| 20260507214210 | 46 | 89 | 3.0 | 4.0 | 0.00 | 0.06 | 0.02 | 99 | 1010.5 |
| 20260507214152 | 46 | 128 | 3.0 | 4.0 | 0.00 | 0.06 | 0.02 | 99 | 1010.6 |
| 20260507213210 | 46 | 109 | 3.0 | 4.0 | 0.00 | 0.06 | 0.02 | 99 | 1010.5 |
| 20260507212711 | 46 | 104 | 3.0 | 4.0 | 0.00 | 0.06 | 0.02 | 99 | 1010.5 |
| 20260507212211 | 46 | 87 | 3.0 | 4.0 | 0.00 | 0.06 | 0.02 | 99 | 1010.5 |
| 20260507211711 | 45 | 126 | 3.0 | 4.0 | 0.00 | 0.06 | 0.02 | 99 | 1010.4 |
| 20260507211211 | 45 | 97 | 3.0 | 4.0 | 0.00 | 0.06 | 0.02 | 99 | 1010.4 |
| 20260507210711 | 46 | 107 | 3.0 | 4.0 | 0.00 | 0.06 | 0.02 | 99 | 1010.3 |
| 20260507210211 | 46 | 120 | 3.0 | 4.0 | 0.00 | 0.06 | 0.02 | 98 | 1010.4 |
| 20260507205712 | 46 | 116 | 3.0 | 4.0 | 0.00 | 0.06 | 0.02 | 98 | 1010.4 |
| 20260507205211 | 47 | 104 | 3.0 | 4.0 | 0.00 | 0.06 | 0.02 | 98 | 1010.3 |
| 20260507204700 | 47 | 120 | 3.0 | 5.0 | 0.00 | 0.06 | 0.02 | 97 | 1010.4 |
| 20260507204159 | 47 | 97 | 3.0 | 5.0 | 0.00 | 0.06 | 0.02 | 97 | 1010.4 |
| 20260507203644 | 47 | 156 | 3.0 | 4.0 | 0.00 | 0.06 | 0.02 | 97 | 1010.4 |
| 20260507203616 | 47 | 112 | 3.0 | 5.0 | 0.00 | 0.06 | 0.02 | 97 | 1010.4 |
| 20260507202628 | 47 | 91 | 3.0 | 5.0 | 0.00 | 0.06 | 0.02 | 98 | 1010.5 |
| 20260507202128 | 47 | 111 | 3.0 | 4.0 | 0.00 | 0.06 | 0.02 | 98 | 1010.6 |
| 20260507201628 | 47 | 87 | 3.0 | 4.0 | 0.00 | 0.06 | 0.02 | 98 | 1010.6 |
| 20260507201128 | 47 | 116 | 3.0 | 5.0 | 0.00 | 0.06 | 0.02 | 99 | 1010.6 |
| 20260507200641 | 47 | 98 | 3.0 | 5.0 | 0.00 | 0.06 | 0.02 | 100 | 1010.6 |
| 20260507200128 | 46 | 104 | 3.0 | 5.0 | 0.00 | 0.06 | 0.02 | 100 | 1010.6 |
| 20260507200119 | 46 | 98 | 3.0 | 4.0 | 0.00 | 0.06 | 0.02 | 99 | 1010.6 |
| 20260507195128 | 45 | 101 | 3.0 | 5.0 | 0.00 | 0.06 | 0.02 | 99 | 1010.7 |
| 20260507194628 | 46 | 111 | 3.0 | 5.0 | 0.00 | 0.06 | 0.02 | 99 | 1011.0 |
| 20260507194128 | 46 | 78 | 3.0 | 5.0 | 0.00 | 0.06 | 0.02 | 98 | 1011.2 |
| 20260507193628 | 46 | 98 | 3.0 | 4.0 | 0.00 | 0.06 | 0.02 | 98 | 1011.1 |
| 20260507193128 | 46 | 108 | 3.0 | 4.0 | 0.00 | 0.06 | 0.02 | 99 | 1011.1 |
| 20260507192627 | 46 | 100 | 3.0 | 4.0 | 0.00 | 0.06 | 0.02 | 99 | 1011.1 |
| 20260507192349 | 46 | 106 | 3.0 | 4.0 | 0.00 | 0.06 | 0.02 | 99 | 1011.2 |
| 20260507191629 | 46 | 102 | 3.0 | 4.0 | 0.00 | 0.06 | 0.02 | 98 | 1011.1 |
| 20260507191116 | 46 | 88 | 3.0 | 5.0 | 0.00 | 0.06 | 0.02 | 98 | 1011.2 |
| 20260507190615 | 47 | 120 | 3.0 | 5.0 | 0.00 | 0.06 | 0.02 | 98 | 1011.3 |
| 20260507190116 | 47 | 114 | 3.0 | 5.0 | 0.00 | 0.06 | 0.02 | 97 | 1011.3 |
| 20260507185616 | 47 | 90 | 3.0 | 5.0 | 0.00 | 0.06 | 0.02 | 96 | 1011.4 |
| 20260507185116 | 48 | 77 | 3.0 | 4.0 | 0.00 | 0.06 | 0.02 | 95 | 1011.5 |
| 20260507184615 | 48 | 165 | 3.0 | 4.0 | 0.00 | 0.06 | 0.02 | 94 | 1011.4 |
| 20260507184116 | 47 | 106 | 3.0 | 4.0 | 0.00 | 0.06 | 0.02 | 97 | 1011.3 |
| 20260507183615 | 47 | 90 | 3.0 | 5.0 | 0.00 | 0.06 | 0.02 | 97 | 1011.1 |
| 20260507183116 | 47 | 110 | 3.0 | 5.0 | 0.00 | 0.06 | 0.02 | 97 | 1011.5 |
| 20260507182616 | 47 | 102 | 3.0 | 4.0 | 0.00 | 0.06 | 0.02 | 98 | 1011.5 |
| 20260507182116 | 47 | 135 | 3.0 | 4.0 | 0.00 | 0.06 | 0.02 | 97 | 1011.5 |
| 20260507181615 | 47 | 80 | 3.0 | 4.0 | 0.00 | 0.06 | 0.02 | 97 | 1011.6 |
| 20260507181115 | 47 | 110 | 4.0 | 5.0 | 0.00 | 0.06 | 0.02 | 98 | 1011.6 |
| 20260507180616 | 46 | 108 | 3.0 | 5.0 | 0.00 | 0.06 | 0.02 | 98 | 1011.5 |
| 20260507180129 | 46 | 107 | 3.0 | 4.0 | 0.00 | 0.06 | 0.02 | 98 | 1011.4 |
| 20260507175601 | 46 | 84 | 3.0 | 4.0 | 0.00 | 0.06 | 0.02 | 98 | 1011.7 |
| 20260507175101 | 46 | 96 | 3.0 | 4.0 | 0.00 | 0.06 | 0.02 | 99 | 1011.6 |
| 20260507174601 | 46 | 103 | 3.0 | 4.0 | 0.00 | 0.06 | 0.02 | 99 | 1011.6 |
| 20260507174552 | 46 | 100 | 3.0 | 4.0 | 0.00 | 0.06 | 0.02 | 99 | 1011.6 |
| 20260507173602 | 46 | 104 | 3.0 | 4.0 | 0.00 | 0.06 | 0.02 | 99 | 1011.7 |
| 20260507173101 | 46 | 112 | 3.0 | 4.0 | 0.00 | 0.06 | 0.02 | 99 | 1011.9 |
| 20260507172601 | 45 | 156 | 3.0 | 3.0 | 0.00 | 0.06 | 0.02 | 99 | 1011.9 |
| 20260507172101 | 44 | 90 | 3.0 | 4.0 | 0.00 | 0.06 | 0.02 | 99 | 1011.7 |
| 20260507171828 | 44 | 99 | 3.0 | 4.0 | 0.00 | 0.06 | 0.02 | 99 | 1011.7 |
| 20260507171101 | 44 | 91 | 3.0 | 4.0 | 0.00 | 0.06 | 0.02 | 99 | 1011.9 |
| 20260507170824 | 44 | 102 | 3.0 | 4.0 | 0.00 | 0.06 | 0.02 | 99 | 1011.9 |
| 20260507170114 | 44 | 106 | 3.0 | 4.0 | 0.00 | 0.06 | 0.02 | 99 | 1012.0 |
| 20260507165602 | 44 | 107 | 3.0 | 4.0 | 0.00 | 0.06 | 0.02 | 99 | 1012.1 |
| 20260507165102 | 44 | 100 | 3.0 | 4.0 | 0.00 | 0.06 | 0.02 | 99 | 1012.3 |
| 20260507164816 | 44 | 123 | 3.0 | 4.0 | 0.00 | 0.06 | 0.02 | 99 | 1012.2 |
| 20260507164527 | 44 | 105 | 3.0 | 4.0 | 0.00 | 0.06 | 0.02 | 99 | 1012.3 |
| 20260507163531 | 44 | 155 | 3.0 | 4.0 | 0.00 | 0.06 | 0.02 | 99 | 1012.2 |
| 20260507163031 | 44 | 94 | 3.0 | 4.0 | 0.00 | 0.06 | 0.02 | 99 | 1012.3 |
| 20260507162531 | 44 | 125 | 3.0 | 4.0 | 0.00 | 0.06 | 0.02 | 99 | 1012.4 |
| 20260507162031 | 44 | 87 | 3.0 | 4.0 | 0.00 | 0.06 | 0.02 | 99 | 1012.5 |
| 20260507161751 | 44 | 135 | 3.0 | 4.0 | 0.00 | 0.06 | 0.02 | 99 | 1012.6 |
| 20260507161032 | 44 | 120 | 3.0 | 5.0 | 0.00 | 0.06 | 0.02 | 99 | 1012.6 |
| 20260507161023 | 43 | 75 | 3.0 | 5.0 | 0.01 | 0.06 | 0.02 | 99 | 1012.5 |
| 20260507160031 | 44 | 126 | 2.0 | 4.0 | 0.01 | 0.06 | 0.02 | 99 | 1012.5 |
| 20260507155531 | 43 | 102 | 3.0 | 4.0 | 0.01 | 0.06 | 0.02 | 99 | 1012.5 |
| 20260507155306 | 43 | 103 | 3.0 | 3.0 | 0.00 | 0.06 | 0.01 | 99 | 1012.6 |
| 20260507154532 | 43 | 123 | 3.0 | 4.0 | 0.00 | 0.06 | 0.01 | 99 | 1012.9 |
| 20260507154032 | 43 | 171 | 3.0 | 4.0 | 0.00 | 0.06 | 0.01 | 99 | 1012.9 |
| 20260507153531 | 43 | 118 | 3.0 | 4.0 | 0.00 | 0.06 | 0.01 | 99 | 1012.7 |
| 20260507153018 | 43 | 128 | 3.0 | 4.0 | 0.00 | 0.06 | 0.01 | 99 | 1012.7 |
| 20260507152957 | 43 | 118 | 3.0 | 4.0 | 0.00 | 0.06 | 0.01 | 99 | 1013.0 |
| 20260507152004 | 43 | 110 | 3.0 | 4.0 | 0.00 | 0.06 | 0.01 | 99 | 1012.9 |
| 20260507151503 | 43 | 124 | 2.0 | 4.0 | 0.00 | 0.06 | 0.01 | 99 | 1012.7 |
| 20260507151003 | 43 | 113 | 2.0 | 3.0 | 0.00 | 0.06 | 0.01 | 99 | 1012.9 |
| 20260507150504 | 43 | 134 | 2.0 | 4.0 | 0.00 | 0.05 | 0.01 | 99 | 1013.1 |
| 20260507150003 | 43 | 138 | 2.0 | 4.0 | 0.00 | 0.05 | 0.01 | 99 | 1012.9 |
| 20260507145731 | 42 | 114 | 3.0 | 4.0 | 0.00 | 0.05 | 0.01 | 99 | 1012.9 |
| 20260507145004 | 43 | 123 | 2.0 | 4.0 | 0.00 | 0.05 | 0.01 | 99 | 1012.7 |
| 20260507144503 | 43 | 117 | 2.0 | 4.0 | 0.00 | 0.05 | 0.01 | 99 | 1012.7 |
| 20260507144004 | 43 | 136 | 2.0 | 4.0 | 0.00 | 0.05 | 0.01 | 99 | 1012.7 |
| 20260507143503 | 43 | 129 | 2.0 | 4.0 | 0.00 | 0.05 | 0.01 | 99 | 1012.7 |
| 20260507143003 | 43 | 169 | 3.0 | 5.0 | 0.00 | 0.05 | 0.01 | 99 | 1012.9 |
| 20260507142504 | 43 | 116 | 3.0 | 5.0 | 0.00 | 0.05 | 0.01 | 99 | 1012.9 |
| 20260507142004 | 43 | 113 | 3.0 | 4.0 | 0.00 | 0.05 | 0.01 | 99 | 1013.1 |
| 20260507141936 | 43 | 137 | 3.0 | 4.0 | 0.00 | 0.05 | 0.01 | 99 | 1013.2 |
| 20260507140949 | 43 | 109 | 2.0 | 4.0 | 0.00 | 0.05 | 0.01 | 99 | 1013.2 |
| 20260507140657 | 43 | 125 | 3.0 | 4.0 | 0.00 | 0.06 | 0.01 | 99 | 1013.4 |
| 20260507135933 | 43 | 125 | 3.0 | 4.0 | 0.00 | 0.06 | 0.01 | 99 | 1013.3 |
| 20260507135433 | 43 | 103 | 3.0 | 4.0 | 0.00 | 0.06 | 0.01 | 99 | 1013.4 |
| 20260507134933 | 43 | 136 | 2.0 | 4.0 | 0.00 | 0.06 | 0.01 | 99 | 1013.3 |
| 20260507134650 | 43 | 101 | 2.0 | 4.0 | 0.00 | 0.06 | 0.01 | 99 | 1013.5 |
| 20260507133934 | 43 | 108 | 3.0 | 4.0 | 0.00 | 0.07 | 0.01 | 99 | 1013.4 |
| 20260507133918 | 43 | 91 | 3.0 | 4.0 | 0.00 | 0.07 | 0.01 | 99 | 1013.5 |
| 20260507132934 | 44 | 144 | 2.0 | 3.0 | 0.00 | 0.07 | 0.01 | 99 | 1013.4 |
| 20260507132913 | 44 | 118 | 2.0 | 3.0 | 0.00 | 0.07 | 0.01 | 99 | 1013.5 |
| 20260507131933 | 44 | 122 | 2.0 | 4.0 | 0.00 | 0.08 | 0.01 | 99 | 1013.5 |
| 20260507131433 | 44 | 131 | 3.0 | 4.0 | 0.00 | 0.08 | 0.01 | 99 | 1013.5 |
| 20260507130934 | 44 | 98 | 3.0 | 4.0 | 0.00 | 0.08 | 0.01 | 99 | 1013.5 |
| 20260507130434 | 44 | 156 | 3.0 | 4.0 | 0.00 | 0.08 | 0.01 | 99 | 1013.4 |
| 20260507130413 | 44 | 111 | 2.0 | 4.0 | 0.00 | 0.08 | 0.01 | 99 | 1013.4 |
| 20260507125434 | 44 | 162 | 3.0 | 4.0 | 0.00 | 0.08 | 0.01 | 99 | 1013.4 |
| 20260507124920 | 44 | 112 | 3.0 | 4.0 | 0.00 | 0.09 | 0.01 | 99 | 1013.5 |
| 20260507124641 | 44 | 103 | 2.0 | 3.0 | 0.00 | 0.11 | 0.01 | 99 | 1013.5 |
| 20260507123920 | 44 | 126 | 3.0 | 4.0 | 0.00 | 0.11 | 0.01 | 99 | 1013.5 |
| 20260507123420 | 44 | 101 | 3.0 | 4.0 | 0.00 | 0.11 | 0.01 | 99 | 1013.5 |
| 20260507122920 | 44 | 120 | 3.0 | 4.0 | 0.00 | 0.12 | 0.01 | 99 | 1013.3 |
| 20260507122909 | 44 | 111 | 3.0 | 4.0 | 0.00 | 0.12 | 0.01 | 99 | 1013.2 |
| 20260507121920 | 45 | 97 | 3.0 | 4.0 | 0.00 | 0.12 | 0.01 | 99 | 1013.2 |
| 20260507121420 | 45 | 115 | 3.0 | 4.0 | 0.00 | 0.13 | 0.01 | 99 | 1013.3 |
| 20260507121404 | 45 | 105 | 3.0 | 4.0 | 0.00 | 0.13 | 0.01 | 99 | 1013.5 |
| 20260507120420 | 45 | 107 | 3.0 | 5.0 | 0.00 | 0.13 | 0.01 | 99 | 1013.5 |
| 20260507115920 | 45 | 110 | 3.0 | 5.0 | 0.00 | 0.13 | 0.01 | 98 | 1013.3 |
| 20260507115421 | 45 | 154 | 3.0 | 4.0 | 0.00 | 0.14 | 0.01 | 98 | 1013.2 |
| 20260507115241 | 45 | 107 | 3.0 | 4.0 | 0.00 | 0.15 | 0.01 | 98 | 1013.2 |
| 20260507113906 | 46 | 115 | 3.0 | 4.0 | 0.00 | 0.15 | 0.01 | 98 | 1013.3 |
| 20260507113624 | 46 | 119 | 3.0 | 4.0 | 0.00 | 0.15 | 0.01 | 98 | 1013.3 |
| 20260507112851 | 47 | 97 | 3.0 | 3.0 | 0.00 | 0.15 | 0.01 | 97 | 1013.3 |
| 20260507112351 | 47 | 103 | 3.0 | 3.0 | 0.00 | 0.15 | 0.01 | 97 | 1013.3 |
| 20260507112213 | 48 | 93 | 3.0 | 4.0 | 0.00 | 0.15 | 0.01 | 97 | 1013.1 |
| 20260507110950 | 49 | 105 | 3.0 | 4.0 | 0.00 | 0.15 | 0.01 | 96 | 1013.2 |
| 20260507105852 | 50 | 109 | 4.0 | 4.0 | 0.00 | 0.15 | 0.01 | 97 | 1013.1 |
| 20260507105352 | 50 | 109 | 3.0 | 4.0 | 0.00 | 0.15 | 0.01 | 97 | 1013.1 |
| 20260507104851 | 50 | 109 | 3.0 | 4.0 | 0.00 | 0.15 | 0.01 | 97 | 1013.0 |
| 20260507104352 | 50 | 115 | 4.0 | 4.0 | 0.00 | 0.15 | 0.01 | 97 | 1013.0 |
| 20260507103851 | 50 | 102 | 3.0 | 4.0 | 0.00 | 0.15 | 0.01 | 96 | 1012.9 |
| 20260507103614 | 50 | 104 | 4.0 | 4.0 | 0.00 | 0.15 | 0.01 | 96 | 1012.7 |
| 20260507102851 | 50 | 103 | 4.0 | 4.0 | 0.00 | 0.15 | 0.01 | 97 | 1013.0 |
| 20260507102353 | 50 | 110 | 4.0 | 4.0 | 0.00 | 0.15 | 0.01 | 96 | 1012.9 |
| 20260507101852 | 50 | 96 | 4.0 | 4.0 | 0.00 | 0.15 | 0.01 | 96 | 1013.0 |
| 20260507101701 | 50 | 97 | 4.0 | 4.0 | 0.00 | 0.15 | 0.01 | 96 | 1013.3 |
| 20260507100336 | 50 | 113 | 4.0 | 4.0 | 0.00 | 0.15 | 0.01 | 96 | 1013.0 |
| 20260507095836 | 50 | 112 | 3.0 | 4.0 | 0.00 | 0.15 | 0.01 | 96 | 1013.2 |
| 20260507095336 | 50 | 109 | 3.0 | 4.0 | 0.00 | 0.15 | 0.01 | 96 | 1012.9 |
| 20260507094836 | 50 | 118 | 3.0 | 5.0 | 0.00 | 0.15 | 0.01 | 96 | 1013.1 |
| 20260507094559 | 50 | 109 | 4.0 | 5.0 | 0.00 | 0.15 | 0.01 | 96 | 1013.2 |
| 20260507093836 | 50 | 99 | 4.0 | 5.0 | 0.00 | 0.15 | 0.01 | 96 | 1013.2 |
| 20260507093659 | 50 | 112 | 4.0 | 4.0 | 0.00 | 0.15 | 0.01 | 96 | 1013.0 |
| 20260507092337 | 50 | 107 | 4.0 | 4.0 | 0.00 | 0.15 | 0.01 | 96 | 1012.7 |
| 20260507091836 | 50 | 99 | 4.0 | 4.0 | 0.00 | 0.15 | 0.01 | 96 | 1012.9 |
| 20260507091349 | 50 | 110 | 3.0 | 4.0 | 0.00 | 0.15 | 0.01 | 96 | 1013.0 |
| 20260507090823 | 51 | 125 | 3.0 | 4.0 | 0.00 | 0.15 | 0.01 | 96 | 1013.2 |
| 20260507090323 | 51 | 111 | 3.0 | 4.0 | 0.00 | 0.15 | 0.01 | 95 | 1013.3 |
| 20260507085809 | 51 | 104 | 3.0 | 4.0 | 0.00 | 0.15 | 0.01 | 95 | 1013.2 |
| 20260507085308 | 51 | 108 | 3.0 | 4.0 | 0.00 | 0.15 | 0.01 | 95 | 1013.2 |
| 20260507084808 | 51 | 99 | 3.0 | 4.0 | 0.00 | 0.15 | 0.01 | 94 | 1013.3 |
| 20260507084309 | 51 | 164 | 3.0 | 4.0 | 0.00 | 0.15 | 0.01 | 94 | 1013.1 |
| 20260507083809 | 51 | 111 | 3.0 | 4.0 | 0.00 | 0.15 | 0.01 | 93 | 1013.0 |
| 20260507083309 | 51 | 122 | 3.0 | 4.0 | 0.00 | 0.15 | 0.01 | 93 | 1012.9 |
| 20260507082809 | 51 | 114 | 3.0 | 4.0 | 0.00 | 0.15 | 0.01 | 93 | 1012.7 |
| 20260507082308 | 51 | 123 | 3.0 | 4.0 | 0.00 | 0.15 | 0.01 | 94 | 1013.0 |
| 20260507081809 | 51 | 112 | 3.0 | 5.0 | 0.00 | 0.15 | 0.01 | 94 | 1013.1 |
| 20260507081309 | 52 | 137 | 3.0 | 5.0 | 0.00 | 0.15 | 0.01 | 93 | 1013.0 |
| 20260507080808 | 52 | 121 | 3.0 | 5.0 | 0.00 | 0.15 | 0.01 | 93 | 1012.9 |
| 20260507080309 | 52 | 163 | 3.0 | 5.0 | 0.00 | 0.15 | 0.01 | 93 | 1013.0 |
| 20260507075756 | 52 | 147 | 3.0 | 5.0 | 0.00 | 0.15 | 0.01 | 93 | 1013.1 |
| 20260507075254 | 52 | 103 | 3.0 | 5.0 | 0.00 | 0.15 | 0.01 | 93 | 1012.7 |
| 20260507074754 | 52 | 121 | 3.0 | 5.0 | 0.00 | 0.15 | 0.01 | 93 | 1012.9 |
| 20260507074254 | 52 | 121 | 3.0 | 4.0 | 0.00 | 0.15 | 0.01 | 93 | 1012.9 |
| 20260507073738 | 52 | 109 | 3.0 | 4.0 | 0.00 | 0.15 | 0.01 | 93 | 1012.7 |
| 20260507073727 | 52 | 131 | 3.0 | 4.0 | 0.00 | 0.15 | 0.01 | 92 | 1012.9 |
| 20260507072738 | 52 | 126 | 3.0 | 4.0 | 0.00 | 0.15 | 0.01 | 92 | 1013.2 |
| 20260507072239 | 52 | 134 | 3.0 | 4.0 | 0.00 | 0.15 | 0.01 | 91 | 1013.1 |
| 20260507072221 | 52 | 139 | 3.0 | 4.0 | 0.00 | 0.15 | 0.01 | 92 | 1013.0 |
| 20260507071238 | 52 | 134 | 3.0 | 4.0 | 0.00 | 0.15 | 0.01 | 92 | 1012.9 |
| 20260507071000 | 52 | 124 | 3.0 | 5.0 | 0.00 | 0.15 | 0.01 | 92 | 1012.7 |
| 20260507070239 | 52 | 130 | 3.0 | 5.0 | 0.00 | 0.15 | 0.01 | 92 | 1013.0 |
| 20260507065738 | 52 | 126 | 3.0 | 4.0 | 0.00 | 0.15 | 0.01 | 93 | 1012.7 |
| 20260507065239 | 52 | 118 | 3.0 | 4.0 | 0.00 | 0.15 | 0.01 | 93 | 1012.7 |
| 20260507064739 | 53 | 171 | 3.0 | 5.0 | 0.00 | 0.15 | 0.01 | 94 | 1012.7 |
| 20260507064457 | 53 | 163 | 3.0 | 5.0 | 0.00 | 0.15 | 0.01 | 94 | 1013.0 |
| 20260507063739 | 53 | 130 | 3.0 | 5.0 | 0.00 | 0.15 | 0.01 | 95 | 1013.0 |
| 20260507063238 | 53 | 143 | 3.0 | 4.0 | 0.00 | 0.15 | 0.01 | 96 | 1012.9 |
| 20260507062738 | 53 | 175 | 2.0 | 4.0 | 0.00 | 0.15 | 0.01 | 96 | 1013.1 |
| 20260507062239 | 53 | 124 | 3.0 | 4.0 | 0.00 | 0.15 | 0.01 | 96 | 1013.2 |
| 20260507061739 | 54 | 16 | 3.0 | 5.0 | 0.00 | 0.15 | 0.01 | 97 | 1013.6 |
| 20260507061238 | 54 | 91 | 3.0 | 5.0 | 0.00 | 0.15 | 0.01 | 97 | 1013.4 |
| 20260507061005 | 55 | 166 | 3.0 | 5.0 | 0.00 | 0.15 | 0.01 | 97 | 1013.6 |
| 20260507060241 | 55 | 98 | 3.0 | 5.0 | 0.00 | 0.15 | 0.01 | 98 | 1013.8 |
| 20260507055725 | 55 | 146 | 3.0 | 5.0 | 0.00 | 0.15 | 0.01 | 97 | 1013.6 |
| 20260507055226 | 55 | 173 | 3.0 | 4.0 | 0.00 | 0.15 | 0.01 | 97 | 1013.8 |
| 20260507054819 | 55 | 131 | 2.0 | 4.0 | 0.00 | 0.15 | 0.01 | 97 | 1013.6 |
| 20260507053945 | 55 | 125 | 3.0 | 4.0 | 0.00 | 0.15 | 0.01 | 96 | 1013.6 |
| 20260507053226 | 55 | 146 | 3.0 | 4.0 | 0.00 | 0.15 | 0.01 | 96 | 1013.8 |
| 20260507052726 | 55 | 117 | 2.0 | 4.0 | 0.00 | 0.15 | 0.01 | 95 | 1013.8 |
| 20260507052225 | 55 | 121 | 2.0 | 4.0 | 0.00 | 0.15 | 0.01 | 94 | 1013.4 |
| 20260507051738 | 55 | 120 | 2.0 | 3.0 | 0.00 | 0.15 | 0.01 | 93 | 1013.3 |
| 20260507051226 | 55 | 97 | 2.0 | 4.0 | 0.01 | 0.15 | 0.01 | 93 | 1013.1 |
| 20260507050747 | 55 | 130 | 3.0 | 7.0 | 0.01 | 0.15 | 0.01 | 94 | 1012.6 |
| 20260507045656 | 55 | 139 | 3.0 | 4.0 | 0.01 | 0.15 | 0.01 | 94 | 1012.6 |
| 20260507045156 | 55 | 99 | 3.0 | 4.0 | 0.01 | 0.15 | 0.01 | 94 | 1012.5 |
| 20260507044656 | 56 | 109 | 3.0 | 5.0 | 0.01 | 0.15 | 0.01 | 94 | 1012.7 |
| 20260507044156 | 56 | 178 | 3.0 | 5.0 | 0.01 | 0.15 | 0.01 | 93 | 1012.9 |
| 20260507043646 | 56 | 89 | 3.0 | 6.0 | 0.00 | 0.14 | 0.00 | 93 | 1012.7 |
| 20260507043146 | 56 | 177 | 3.0 | 6.0 | 0.00 | 0.14 | 0.00 | 92 | 1013.3 |
| 20260507042646 | 56 | 102 | 3.0 | 9.0 | 0.01 | 0.14 | 0.00 | 92 | 1013.3 |
| 20260507042147 | 56 | 143 | 3.0 | 9.0 | 0.02 | 0.14 | 0.00 | 92 | 1013.4 |
| 20260507041647 | 56 | 121 | 3.0 | 6.0 | 0.02 | 0.14 | 0.00 | 91 | 1013.3 |
| 20260507041147 | 56 | 164 | 3.0 | 6.0 | 0.02 | 0.14 | 0.00 | 91 | 1013.6 |
| 20260507040646 | 56 | 155 | 3.0 | 6.0 | 0.03 | 0.14 | 0.00 | 91 | 1013.6 |
| 20260507040159 | 56 | 101 | 3.0 | 5.0 | 0.03 | 0.14 | 0.00 | 92 | 1013.6 |
| 20260507035640 | 56 | 138 | 3.0 | 5.0 | 0.04 | 0.14 | 0.14 | 92 | 1013.5 |
| 20260507035141 | 56 | 120 | 3.0 | 5.0 | 0.04 | 0.14 | 0.14 | 92 | 1013.6 |
| 20260507034640 | 56 | 164 | 4.0 | 7.0 | 0.04 | 0.14 | 0.14 | 92 | 1013.5 |
| 20260507034618 | 56 | 112 | 4.0 | 9.0 | 0.04 | 0.14 | 0.14 | 92 | 1013.5 |
| 20260507033640 | 57 | 111 | 4.0 | 9.0 | 0.04 | 0.14 | 0.14 | 93 | 1013.9 |
| 20260507033140 | 57 | 216 | 4.0 | 7.0 | 0.04 | 0.13 | 0.13 | 93 | 1013.9 |
| 20260507032640 | 57 | 68 | 3.0 | 6.0 | 0.04 | 0.13 | 0.13 | 92 | 1014.1 |
| 20260507032141 | 57 | 150 | 3.0 | 6.0 | 0.03 | 0.12 | 0.12 | 95 | 1014.4 |
| 20260507031635 | 57 | 117 | 3.0 | 6.0 | 0.02 | 0.12 | 0.12 | 96 | 1014.5 |
| 20260507031135 | 57 | 150 | 3.0 | 6.0 | 0.02 | 0.11 | 0.11 | 95 | 1014.4 |
| 20260507030635 | 57 | 148 | 3.0 | 6.0 | 0.02 | 0.11 | 0.11 | 95 | 1014.2 |
| 20260507030135 | 58 | 165 | 4.0 | 7.0 | 0.01 | 0.11 | 0.11 | 94 | 1014.1 |
| 20260507025635 | 58 | 71 | 4.0 | 8.0 | 0.00 | 0.09 | 0.09 | 94 | 1013.9 |
| 20260507025135 | 57 | 125 | 4.0 | 8.0 | 0.00 | 0.09 | 0.09 | 94 | 1013.6 |
| 20260507024635 | 57 | 97 | 4.0 | 7.0 | 0.00 | 0.09 | 0.09 | 93 | 1014.1 |
| 20260507024135 | 57 | 67 | 4.0 | 7.0 | 0.00 | 0.09 | 0.09 | 94 | 1014.0 |
| 20260507023636 | 57 | 50 | 4.0 | 6.0 | 0.00 | 0.09 | 0.09 | 94 | 1013.8 |
| 20260507023135 | 57 | 85 | 4.0 | 6.0 | 0.00 | 0.09 | 0.09 | 94 | 1013.8 |
| 20260507022635 | 57 | 88 | 4.0 | 6.0 | 0.00 | 0.09 | 0.09 | 95 | 1013.8 |
| 20260507022148 | 57 | 111 | 4.0 | 7.0 | 0.00 | 0.09 | 0.09 | 95 | 1013.8 |
| 20260507021636 | 57 | 80 | 4.0 | 7.0 | 0.00 | 0.09 | 0.09 | 96 | 1013.9 |
| 20260507021135 | 57 | 85 | 4.0 | 6.0 | 0.00 | 0.09 | 0.09 | 95 | 1013.3 |
| 20260507020636 | 57 | 106 | 4.0 | 6.0 | 0.00 | 0.09 | 0.09 | 96 | 1013.3 |
| 20260507020149 | 57 | 119 | 4.0 | 5.0 | 0.00 | 0.09 | 0.09 | 95 | 1013.3 |
| 20260507015631 | 57 | 59 | 4.0 | 5.0 | 0.00 | 0.09 | 0.09 | 94 | 1013.3 |
| 20260507015128 | 57 | 78 | 4.0 | 5.0 | 0.00 | 0.09 | 0.09 | 94 | 1013.2 |
| 20260507014613 | 57 | 88 | 4.0 | 5.0 | 0.00 | 0.09 | 0.09 | 93 | 1013.2 |
| 20260507014126 | 57 | 88 | 4.0 | 5.0 | 0.00 | 0.09 | 0.09 | 93 | 1013.2 |
| 20260507013613 | 57 | 89 | 4.0 | 5.0 | 0.00 | 0.09 | 0.09 | 93 | 1013.5 |
| 20260507013113 | 58 | 86 | 4.0 | 5.0 | 0.00 | 0.09 | 0.09 | 93 | 1013.6 |